Temp_Advection
nan nan nan nan nan nan nan nan nan nan nan nan nan nan nan nan nan nan nan nan nan nan
nan -0 -0 -0 -0 -0 -0 -0 -0 -0 -0 0 0 0 0 0 0 -0 -0 -0 -0 nan
nan -0 -0 -0 -0 -0 -0 -0 -0 -1 -1 -1 -0 -0 -0 -0 -0 -0 -0 -0 -0 nan
nan 0 0 0 0 -0 -0 -0 -0 -0 -0 -0 -0 -0 -0 -0 -0 -0 -0 -0 -0 nan
nan 0 0 0 0 -0 -0 -0 -0 -0 -0 -0 -0 -0 -0 -0 -0 -0 -0 -0 -0 nan
nan 0 0 0 0 0 0 -0 -0 -0 -0 -0 -0 -0 -0 -0 -0 -0 -0 -0 -0 nan
nan 0 0 0 0 -0 -0 -0 -0 -0 -0 -0 -0 -0 -0 -0 -0 -0 -0 -0 -0 nan
nan 0 0 0 0 0 0 -0 -0 -0 0 -0 -0 -0 -0 0 -0 -0 -0 -0 -0 nan
nan 0 0 0 0 0 0 0 0 0 -0 0 0 0 -0 -0 0 0 0 0 -0 nan
nan 1 0 0 0 0 0 0 0 0 0 0 0 0 0 -0 -0 -0 0 -0 -0 nan
nan 0 0 0 0 0 0 0 0 0 0 0 0 0 0 0 -0 -0 0 0 -0 nan
nan 0 0 0 0 0 0 0 0 0 -0 -0 0 0 0 -0 -0 -0 -0 -0 0 nan
nan 0 0 0 0 0 0 0 0 0 0 -0 -0 -0 0 0 -0 -1 -1 -1 -0 nan
nan nan nan nan nan nan nan nan nan nan nan nan nan nan nan nan nan nan nan nan nan nan
Wind_Speed
8 9 9 9 9 10 11 12 13 14 15 16 16 15 14 14 11 10 11 12 14 15
7 8 9 10 11 11 11 11 12 13 14 15 15 16 16 17 16 16 15 16 15 15
8 9 8 8 9 11 12 14 14 15 15 16 16 16 16 15 14 14 13 13 13 13
7 8 10 11 12 13 14 16 17 17 17 17 17 16 16 16 16 16 16 15 16 16
9 10 11 12 13 14 15 17 18 18 18 17 17 17 17 17 17 17 17 17 17 16
10 11 12 13 14 16 17 18 17 16 17 17 16 17 17 18 19 19 19 19 19 19
12 12 13 14 15 17 18 18 17 18 18 19 19 18 18 18 18 18 17 17 17 18
14 14 15 15 17 18 18 18 18 19 20 20 19 19 18 18 18 19 19 17 16 17
16 16 16 16 17 19 19 19 19 19 20 19 18 18 17 17 17 18 18 18 19 19
17 17 17 18 19 20 19 19 20 20 19 19 18 17 17 15 17 18 18 19 21 21
19 18 18 19 20 20 20 20 21 20 19 19 18 17 16 16 18 18 18 19 21 20
19 19 19 20 20 19 20 20 19 20 19 20 18 17 17 17 19 20 20 20 20 21
21 20 20 20 19 19 20 20 20 19 20 18 18 17 17 18 19 21 21 20 21 21
20 19 19 19 19 19 19 19 20 20 19 17 16 17 16 17 18 20 21 23 25 23
Wind_Direction
27 24 19 17 13 2 356 351 348 345 340 338 338 338 339 338 331 314 303 301 307 309
11 8 4 0 356 349 343 336 331 326 321 320 320 322 321 319 319 323 323 319 315 311
352 354 349 341 333 334 334 332 329 325 321 317 316 314 313 313 314 316 314 313 312 310
330 329 329 328 328 327 329 328 325 324 324 324 325 324 322 321 322 321 321 319 317 317
315 320 320 319 320 321 321 323 324 324 324 325 325 324 322 320 319 319 321 322 321 319
300 307 311 309 311 314 317 320 321 321 321 320 320 317 315 313 314 316 319 321 323 324
289 294 296 298 305 313 318 320 320 322 323 323 323 320 316 314 314 315 317 319 320 321
280 288 293 297 306 313 316 319 322 322 321 320 320 318 317 317 317 316 318 320 319 321
278 284 289 296 305 312 315 315 315 314 315 316 315 313 312 313 309 312 314 316 319 321
276 281 288 296 303 308 309 311 313 313 312 313 313 312 311 312 306 308 310 313 316 317
272 278 284 292 300 305 308 310 310 310 311 311 311 310 307 306 305 309 309 309 309 312
269 276 282 290 298 300 303 305 307 308 309 310 309 307 307 306 308 308 309 309 310 313
263 271 280 290 293 298 302 304 305 305 307 306 307 308 309 311 311 310 310 308 310 314
263 272 281 287 293 298 300 301 302 302 303 305 306 307 309 310 309 311 316 313 312 315
Height
1495 1493 1491 1491 1490 1488 1486 1484 1482 1479 1477 1474 1472 1470 1467 1464 1465 1466 1465 1462 1457 1455
1496 1493 1492 1491 1489 1487 1485 1483 1480 1478 1475 1473 1470 1468 1466 1464 1462 1459 1456 1455 1454 1453
1496 1493 1491 1489 1487 1485 1483 1481 1478 1476 1473 1470 1468 1465 1463 1460 1458 1456 1454 1452 1450 1448
1494 1492 1490 1489 1487 1484 1482 1479 1476 1473 1470 1467 1465 1462 1460 1458 1456 1454 1452 1449 1447 1444
1492 1490 1488 1487 1485 1482 1479 1476 1473 1470 1468 1465 1463 1460 1458 1455 1453 1450 1448 1445 1443 1440
1489 1488 1486 1484 1481 1478 1476 1473 1471 1468 1465 1463 1461 1458 1455 1452 1449 1447 1444 1441 1439 1436
1486 1484 1482 1481 1479 1476 1473 1470 1467 1464 1462 1459 1457 1454 1451 1449 1446 1444 1441 1439 1435 1432
1481 1481 1479 1478 1475 1473 1469 1466 1463 1460 1458 1456 1453 1451 1448 1446 1443 1440 1438 1436 1433 1430
1477 1476 1475 1473 1471 1468 1466 1463 1460 1457 1454 1452 1449 1447 1445 1442 1439 1437 1435 1432 1429 1427
1473 1472 1471 1469 1467 1465 1462 1459 1456 1453 1451 1448 1445 1443 1441 1439 1436 1433 1431 1428 1425 1423
1469 1468 1467 1465 1463 1460 1457 1454 1452 1449 1447 1444 1442 1439 1437 1435 1432 1429 1427 1424 1421 1418
1464 1463 1462 1460 1458 1455 1452 1450 1447 1444 1442 1440 1437 1435 1433 1431 1428 1425 1423 1420 1417 1413
1457 1457 1456 1455 1453 1451 1448 1445 1442 1439 1437 1435 1433 1430 1428 1425 1422 1420 1417 1415 1412 1410
1453 1453 1452 1450 1449 1447 1444 1442 1439 1436 1433 1431 1428 1426 1424 1421 1418 1415 1412 1409 1407 1404